Weather History for Fayetteville, AR

Change the Weather History Date:

Thursday, February 21, 2013

  Actual Average Record
Temperature  
Mean Temperature 35 °F 41 °F  
Max Temperature 38 °F 53 °F 83 °F (1996)
Min Temperature 31 °F 30 °F 6 °F (1963)
Degree Days  
Heating Degree Days 30 24  
Month to date heating degree days 523 551  
Since 1 July heating degree days 2856 3145  
Moisture  
Dew Point 31 °F    
Average Humidity 85    
Maximum Humidity 100    
Minimum Humidity 70    
Precipitation  
Precipitation 0.31 in 0.11 in 0.37 in (1949)
Month to date precipitation 2.28 2.03  
Year to date precipitation 5.31 4.87  
Sea Level Pressure  
Sea Level Pressure 29.83 in    
Wind  
Wind Speed 7 mph (SE)    
Max Wind Speed 16 mph    
Max Gust Speed 24 mph    
Visibility 8 miles    
Events Rain , Thunderstorm    
T = Trace of Precipitation, MM = Missing Value Source: NWS Daily Summary

Daily Weather History Graph

Daily Weather History Graph

Search for Another Location

Airport:

Trip Planner

Search our weather history database for the weather conditions in past years. The results will help you decide how hot, cold, wet, or windy it might be!

Date:

Astronomy

Feb. 21, 2013 Rise Set
Actual Time 6:56 AM CST 6:04 PM CST
Civil Twilight 6:30 AM CST 6:30 PM CST
Nautical Twilight 6:00 AM CST 7:00 PM CST
Astronomical Twilight 5:31 AM CST 7:29 PM CST
Moon 2:24 PM CST (2/21) 3:56 AM CST (2/21)
Length of Visible Light 11h 59m
Length of Day
11h 07m
Waxing Gibbous, 84% of the Moon is Illuminated
Feb 21
Waxing Gibbous
Feb 25
Full
Mar 4
Last Quarter
Mar 11
New
Mar 19
First Quarter

Hourly Weather History & Observations

Time (CST) Temp. Windchill Dew Point Humidity Pressure Visibility Wind Dir Wind Speed Gust Speed Precip Events Conditions
12:16 AM 32.0 °F 23.0 °F 30.2 °F 93% 30.06 in 6.0 mi ESE 11.5 mph 18.4 mph 0.02 in Rain Light Freezing Rain
12:49 AM 32.0 °F 25.6 °F 32.0 °F 100% 30.03 in 10.0 mi East 6.9 mph - 0.02 in   Overcast
12:53 AM 32.0 °F 25.6 °F 32.0 °F 100% 30.06 in 10.0 mi East 6.9 mph - 0.02 in   Overcast
1:53 AM 32.0 °F 25.6 °F 32.0 °F 100% 30.02 in 10.0 mi East 6.9 mph - N/A   Overcast
2:53 AM 30.9 °F 24.3 °F 30.9 °F 100% 29.97 in 10.0 mi ENE 6.9 mph - N/A   Overcast
3:53 AM 32.0 °F 25.6 °F 30.2 °F 93% 29.88 in 10.0 mi East 6.9 mph - N/A   Overcast
4:50 AM 35.6 °F 27.5 °F 28.4 °F 75% 29.83 in 10.0 mi ESE 11.5 mph - N/A   Overcast
4:53 AM 35.1 °F 27.4 °F 27.0 °F 72% 29.84 in 10.0 mi ESE 10.4 mph - N/A   Overcast
4:58 AM 35.6 °F 28.0 °F 24.8 °F 65% 29.82 in 10.0 mi ESE 10.4 mph 17.3 mph N/A Thunderstorm Overcast
5:38 AM 33.8 °F 28.6 °F 26.6 °F 75% 29.81 in 6.0 mi East 5.8 mph - 0.03 in Rain Rain
5:53 AM 35.1 °F 27.9 °F 27.0 °F 72% 29.83 in 10.0 mi ESE 9.2 mph 16.1 mph 0.03 in Thunderstorm Overcast
6:01 AM 35.6 °F 27.1 °F 26.6 °F 70% 29.80 in 10.0 mi ESE 12.7 mph 18.4 mph N/A   Overcast
6:13 AM 35.6 °F 26.6 °F 24.8 °F 65% 29.79 in 10.0 mi ESE 13.8 mph 19.6 mph N/A   Overcast
6:53 AM 36.0 °F 27.5 °F 27.0 °F 70% 29.80 in 10.0 mi ESE 12.7 mph 23.0 mph N/A   Overcast
7:53 AM 36.0 °F 27.5 °F 28.9 °F 76% 29.76 in 9.0 mi ESE 12.7 mph 24.2 mph N/A   Overcast
8:53 AM 37.9 °F 32.1 °F 30.9 °F 76% 29.71 in 10.0 mi SE 8.1 mph 21.9 mph 0.01 in   Overcast
9:27 AM 37.4 °F 28.9 °F 33.8 °F 87% 29.80 in 1.8 mi WNW 13.8 mph 19.6 mph 0.16 in Rain Heavy Rain
9:35 AM 35.6 °F 29.9 °F 32.0 °F 87% 29.80 in 3.0 mi NW 6.9 mph 19.6 mph 0.17 in Rain Light Rain
9:53 AM 35.1 °F 29.3 °F 33.1 °F 92% 29.83 in 4.0 mi WNW 6.9 mph 18.4 mph 0.21 in Rain Rain
10:19 AM 35.6 °F - 33.8 °F 93% 29.84 in 3.0 mi Calm Calm - 0.02 in Rain Light Rain
10:27 AM 35.6 °F 32.8 °F 33.8 °F 93% 29.84 in 3.0 mi NNW 3.5 mph - 0.02 in Rain Light Rain
10:49 AM 35.6 °F - 33.8 °F 93% 29.82 in 2.0 mi Calm Calm - 0.03 in Rain Light Rain
10:53 AM 35.1 °F - 34.0 °F 96% 29.85 in 2.5 mi Calm Calm - 0.03 in Rain Light Rain
11:22 AM 35.6 °F 29.9 °F 33.8 °F 93% 29.78 in 3.0 mi ENE 6.9 mph - 0.01 in Rain Light Rain
11:49 AM 35.6 °F 28.6 °F 33.8 °F 93% 29.79 in 8.0 mi SE 9.2 mph - 0.01 in   Overcast
11:53 AM 36.0 °F 28.5 °F 33.1 °F 89% 29.81 in 10.0 mi ESE 10.4 mph - 0.01 in   Overcast
12:42 PM 35.6 °F 29.9 °F 33.8 °F 93% 29.74 in 7.0 mi ESE 6.9 mph - 0.00 in   Overcast
12:53 PM 35.1 °F 27.4 °F 33.1 °F 92% 29.75 in 3.0 mi ESE 10.4 mph - 0.00 in   Overcast
1:53 PM 36.0 °F 31.1 °F 33.1 °F 89% 29.71 in 10.0 mi East 5.8 mph - N/A   Overcast
2:53 PM 35.1 °F 30.1 °F 33.1 °F 92% 29.70 in 10.0 mi East 5.8 mph - N/A   Overcast
3:53 PM 36.0 °F 31.1 °F 33.1 °F 89% 29.72 in 8.0 mi SE 5.8 mph - N/A   Overcast
4:53 PM 36.0 °F 29.6 °F 34.0 °F 93% 29.75 in 9.0 mi SSW 8.1 mph - N/A   Overcast
5:14 PM 35.6 °F 28.0 °F 33.8 °F 93% 29.74 in 4.0 mi South 10.4 mph - N/A   Overcast
5:53 PM 35.1 °F 27.4 °F 33.1 °F 92% 29.77 in 7.0 mi SW 10.4 mph - 0.01 in   Overcast
6:53 PM 35.1 °F 27.9 °F 33.1 °F 92% 29.80 in 10.0 mi South 9.2 mph - N/A   Overcast
7:53 PM 35.1 °F 32.2 °F 34.0 °F 96% 29.80 in 10.0 mi SSW 3.5 mph - N/A   Overcast
8:53 PM 35.6 °F - 33.8 °F 93% 29.81 in 10.0 mi Calm Calm - N/A   Overcast
9:51 PM 35.6 °F 28.6 °F 33.8 °F 93% 29.84 in 10.0 mi SW 9.2 mph - N/A   Overcast
9:53 PM 36.0 °F 29.0 °F 33.1 °F 89% 29.86 in 10.0 mi SW 9.2 mph - N/A   Overcast
10:53 PM 35.1 °F 26.9 °F 32.0 °F 89% 29.88 in 10.0 mi WSW 11.5 mph - N/A   Overcast
11:46 PM 33.8 °F 24.3 °F 30.2 °F 87% 29.87 in 10.0 mi WSW 13.8 mph 21.9 mph N/A   Overcast
11:53 PM 34.0 °F 26.6 °F 30.9 °F 89% 29.89 in 10.0 mi West 9.2 mph 18.4 mph N/A   Overcast